This is the latest recevied weather packets stored in our database for station/object KP4FJC. If no packets are shown the sender has not sent any weather packets the latest 10 day(s).
| Time | Temp. | Humidity | Pressure | Rain* | Wind** | Luminosity | Snow |
|---|---|---|---|---|---|---|---|
| 1777998304 | 32.22° C | 61% | 1018.4 hPa | 0 mm | - | 267 W/m² | - |
| 1777998001 | 31.67° C | 62% | 1018.4 hPa | 0 mm | - | 180 W/m² | - |
| 1777997697 | 32.22° C | 61% | 1018.7 hPa | 0 mm | - | 932 W/m² | - |
| 1777997394 | 31.67° C | 60% | 1018.5 hPa | 0 mm | - | 933 W/m² | - |
| 1777997092 | 31.67° C | 61% | 1018.5 hPa | 0 mm | - | 929 W/m² | - |
| 1777996789 | 31.67° C | 61% | 1018.6 hPa | 0 mm | - | 943 W/m² | - |
| 1777996485 | 31.67° C | 61% | 1018.7 hPa | 0 mm | - | 1047 W/m² | - |
| 1777996182 | 31.67° C | 63% | 1018.4 hPa | 0 mm | - | 1010 W/m² | - |
| 1777995878 | 31.67° C | 65% | 1018.6 hPa | 0 mm | - | 936 W/m² | - |
| 1777995574 | 31.67° C | 63% | 1018.3 hPa | 0 mm | - | 926 W/m² | - |
| 1777995271 | 31.67° C | 65% | 1018.6 hPa | 0 mm | - | 949 W/m² | - |
| 1777994963 | 31.67° C | 65% | 1018.7 hPa | 0 mm | - | 935 W/m² | - |
| 1777994660 | 31.67° C | 64% | 1018.4 hPa | 0 mm | - | 926 W/m² | - |
| 1777994359 | 31.11° C | 66% | 1018.5 hPa | 0 mm | - | 995 W/m² | - |
| 1777994050 | 31.67° C | 63% | 1018.5 hPa | 0 mm | - | 899 W/m² | - |
| 1777993748 | 30.56° C | 65% | 1018.5 hPa | 0 mm | - | 460 W/m² | - |
| 1777993444 | 31.67° C | 63% | 1018.6 hPa | 0 mm | - | 811 W/m² | - |
| 1777993139 | 31.11° C | 65% | 1018.4 hPa | 0 mm | - | 668 W/m² | - |
| 1777992837 | 31.11° C | 64% | 1018.7 hPa | 0 mm | - | 843 W/m² | - |
| 1777992534 | 31.11° C | 64% | 1018.4 hPa | 0 mm | - | 873 W/m² | - |
| 1777992233 | 30.56° C | 65% | 1018.7 hPa | 0 mm | - | 845 W/m² | - |
| 1777991930 | 31.11° C | 65% | 1018.6 hPa | 0 mm | - | 860 W/m² | - |
| 1777991627 | 30° C | 67% | 1018.8 hPa | 0 mm | - | 859 W/m² | - |
| 1777991324 | 30.56° C | 67% | 1018.8 hPa | 0 mm | - | 488 W/m² | - |
| 1777991022 | 30.56° C | 68% | 1018.7 hPa | 0 mm | - | 237 W/m² | - |
* Rain latest hour (hover to see other rain measurements)
** Current wind speed in m/s (hover to see current wind gust speed)